Weather observations for the past three days for
Waukesha County Airport
| Date | Time (cdt) | Wind (mph) | Vis. (mi.) | Weather | Sky Cond. | Temperature (ºF) | Relative Humidity | Wind Chill (°F) | Heat Index (°F) | Pressure | Precipitation (in) | ||||||
|---|---|---|---|---|---|---|---|---|---|---|---|---|---|---|---|---|---|
| Air | Dwpt | 6 hour | altimeter (in) | sea level (mb) | 1 hr | 3 hr | 6 hr | ||||||||||
| Max. | Min. | ||||||||||||||||
| 04 | 17:45 | W 3 | 10.00 | Fair | CLR | 84.2 | 77 | 79% | 94 | 29.9 | 0.0 | ||||||
| 04 | 16:45 | SW 6 | 10.00 | Fair | CLR | 87.8 | 75.2 | 66% | 98 | 29.9 | 0.0 | ||||||
| 04 | 15:45 | SW 10 G 18 | 10.00 | Fair | CLR | 86 | 75.2 | 70% | 95 | 29.89 | 0.0 | ||||||
| 04 | 14:45 | SW 12 G 18 | 10.00 | Fair | CLR | 82.4 | 73.4 | 74% | 88 | 29.9 | 0.0 | ||||||
| 04 | 13:45 | SW 15 G 21 | 10.00 | Fair | CLR | 78.8 | 71.6 | 79% | 82 | 29.91 | 0.0 | ||||||
| 04 | 12:45 | S 17 G 25 | 10.00 | Fair | CLR | 73.4 | 69.8 | 89% | 29.93 | 0.0 | |||||||
| 04 | 11:45 | S 12 G 20 | 10.00 | Partly Cloudy | SCT120 | 69.8 | 68 | 94% | 29.93 | 0.0 | |||||||
| 04 | 10:45 | S 14 G 26 | 10.00 | Light Rain | SCT090 BKN110 | 69.8 | 68 | 94% | 29.98 | 0.0 | |||||||
| 04 | 09:45 | SE 8 | 10.00 | Thunderstorm in Vicinity | SCT044 OVC065 | 69.8 | 68 | 94% | 30.01 | 0.0 | |||||||
| 04 | 08:45 | NE 14 G 36 | 1.50 | Thunderstorm Heavy Rain | BKN006 OVC012 | 69.8 | 66.2 | 88% | 30.02 | 0.0 | |||||||
| 04 | 06:45 | NE 8 | 7.00 | Fog/Mist | OVC004 | 68 | 68 | 100% | 29.96 | 0.0 | |||||||
| 04 | 05:45 | E 6 | 7.00 | Light Rain | BKN008 BKN060 OVC110 | 69.8 | 69.8 | 100% | 29.92 | 0.0 | |||||||
| 04 | 05:35 | E 7 | 10.00 | Overcast | FEW008 FEW065 OVC110 | 69.8 | 69.8 | 100% | 29.92 | 0.0 | |||||||
| 04 | 05:15 | E 9 | 10.00 | Overcast | SCT065 OVC110 | 71.6 | 69.8 | 94% | 29.93 | 0.0 | |||||||
| 04 | 04:55 | E 8 | 10.00 | Thunderstorm in Vicinity | SCT065 BKN080 OVC110 | 71.6 | 69.8 | 94% | 29.93 | 0.0 | |||||||
| 04 | 04:35 | E 7 | 10.00 | Overcast | FEW007 BKN060 OVC110 | 71.6 | 69.8 | 94% | 29.93 | 0.0 | |||||||
| 04 | 04:15 | NE 13 | 4.00 | Fog/Mist | FEW004 FEW070 BKN110 | 71.6 | 71.6 | 100% | 29.93 | 0.0 | |||||||
| 04 | 03:55 | Vrbl 2 | 4.00 | Light Rain Fog/Mist | SCT075 BKN090 BKN110 | 71.6 | 71.6 | 100% | 29.91 | 0.0 | 0.02 | ||||||
| 04 | 03:35 | Calm | 5.00 | Light Rain Fog/Mist | SCT070 BKN090 OVC110 | 71.6 | 71.6 | 100% | 29.91 | 0.0 | |||||||
| 04 | 03:15 | Vrbl 2 | 6.00 | Light Rain Fog/Mist | SCT026 BKN070 OVC110 | 71.6 | 71.6 | 100% | 29.9 | 0.0 | |||||||
| 04 | 02:55 | SE 7 | 3.00 | Light Rain Fog/Mist | SCT002 BKN050 OVC100 | 71.6 | 71.6 | 100% | 29.91 | 0.0 | 0.05 | ||||||
| 04 | 02:35 | SE 9 | 1.75 | Rain Fog/Mist | SCT003 BKN047 OVC120 | 73.4 | 71.6 | 94% | 29.91 | 0.0 | |||||||
| 04 | 02:15 | SE 7 | 10.00 | Mostly Cloudy | SCT065 SCT090 BKN120 | 73.4 | 69.8 | 89% | 29.92 | 0.0 | |||||||
| 04 | 01:55 | SE 7 | 10.00 | Thunderstorm in Vicinity | SCT065 | 71.6 | 69.8 | 94% | 29.92 | 0.0 | |||||||
| 04 | 01:35 | E 7 | 10.00 | Thunderstorm in Vicinity | FEW037 | 71.6 | 69.8 | 94% | 29.93 | 0.0 | |||||||
| 04 | 01:15 | E 6 | 10.00 | Mostly Cloudy | BKN039 BKN110 | 73.4 | 69.8 | 89% | 29.93 | 0.0 | |||||||
| 04 | 00:55 | Vrbl 6 | 9.00 | Thunderstorm in Vicinity | BKN039 BKN060 BKN110 | 71.6 | 69.8 | 75.7 | 71.2 | 94% | 29.95 | 0.0 | |||||
| 04 | 00:35 | N 12 | 8.00 | Thunderstorm in Vicinity Light Rain | SCT049 BKN060 OVC110 | 71.6 | 69.8 | 94% | 29.96 | 0.0 | |||||||
| 04 | 00:16 | NE 3 | 10.00 | Thunderstorm | FEW055 SCT110 | 73.4 | 71.6 | 94% | 29.95 | 0.0 | |||||||
| 03 | 23:55 | SE 3 | 10.00 | Thunderstorm | SCT110 | 73.4 | 69.8 | 89% | 29.95 | 0.0 | |||||||
| 03 | 23:35 | E 6 | 10.00 | Thunderstorm in Vicinity | OVC110 | 71.6 | 69.8 | 94% | 29.95 | 0.0 | |||||||
| 03 | 23:15 | E 6 | 10.00 | Thunderstorm in Vicinity | OVC120 | 71.6 | 69.8 | 94% | 29.94 | 0.0 | |||||||
| 03 | 22:55 | E 6 | 10.00 | Thunderstorm in Vicinity | BKN110 | 71.6 | 69.8 | 94% | 29.95 | 0.0 | |||||||
| 03 | 22:35 | E 5 | 10.00 | A Few Clouds | FEW110 | 71.6 | 69.8 | 94% | 29.96 | 0.0 | |||||||
| 03 | 22:15 | SE 5 | 10.00 | Fair | CLR | 71.6 | 69.8 | 94% | 29.96 | 0.0 | |||||||
| 03 | 21:55 | SE 5 | 10.00 | Fair | CLR | 73.4 | 69.8 | 89% | 29.96 | 0.0 | |||||||
| 03 | 21:35 | SE 3 | 10.00 | Fair | CLR | 71.6 | 68 | 88% | 29.96 | 0.0 | |||||||
| 03 | 21:15 | SE 5 | 10.00 | Fair | CLR | 73.4 | 69.8 | 89% | 29.95 | 0.0 | |||||||
| 03 | 20:55 | SE 5 | 10.00 | A Few Clouds | FEW100 | 73.4 | 69.8 | 89% | 29.95 | 0.0 | |||||||
| 03 | 20:45 | E 6 | 10.00 | Fair | CLR | 73.4 | 69.8 | 89% | 29.95 | 0.0 | |||||||
| 03 | 19:45 | E 5 | 10.00 | Fair | CLR | 73.4 | 69.8 | 89% | 29.93 | 0.0 | |||||||
| 03 | 18:45 | E 7 | 10.00 | Fair | CLR | 75.2 | 69.8 | 83% | 75 | 29.92 | 0.0 | ||||||
| 03 | 17:45 | E 7 | 10.00 | Fair | CLR | 78.8 | 75.2 | 89% | 82 | 29.92 | 0.0 | ||||||
| 03 | 16:45 | NE 6 | 10.00 | Fair | CLR | 78.8 | 73.4 | 84% | 82 | 29.93 | 0.0 | ||||||
| 03 | 15:45 | NE 7 | 10.00 | Fair | CLR | 78.8 | 73.4 | 84% | 82 | 29.93 | 0.0 | ||||||
| 03 | 14:45 | SW 6 | 10.00 | Fair | CLR | 77 | 73.4 | 89% | 78 | 29.92 | 0.0 | ||||||
| 03 | 13:45 | SW 8 | 10.00 | Fair | CLR | 77 | 71.6 | 83% | 78 | 29.94 | 0.0 | ||||||
| 03 | 12:45 | NW 5 | 10.00 | Partly Cloudy | SCT100 SCT120 | 73.4 | 71.6 | 94% | 29.96 | 0.0 | |||||||
| 03 | 11:45 | S 8 | 4.00 | Light Rain Fog/Mist | CLR | 71.6 | 69.8 | 94% | 29.98 | 0.0 | |||||||
| 03 | 10:45 | W 12 G 17 | 2.50 | Thunderstorm in Vicinity Rain Fog/Mist | BKN070 BKN100 | 71.6 | 69.8 | 94% | 30.03 | 0.0 | |||||||
| 03 | 09:45 | NW 12 | 1.50 | Thunderstorm Rain | SCT028 BKN045 BKN065 | 69.8 | 66.2 | 88% | 30.03 | 0.0 | |||||||
| 03 | 08:45 | NE 10 | 10.00 | Thunderstorm | SCT036 BKN050 OVC070 | 69.8 | 66.2 | 88% | 29.99 | 0.0 | |||||||
| 03 | 07:45 | Calm | 8.00 | Thunderstorm in Vicinity | BKN085 | 77 | 73.4 | 89% | 78 | 29.92 | 0.0 | ||||||
| 03 | 06:45 | Calm | 10.00 | Fog/Mist | FEW080 | 71.6 | 71.6 | 100% | 29.91 | 0.0 | |||||||
| 03 | 05:45 | Calm | 10.00 | Partly Cloudy | SCT080 | 71.6 | 69.8 | 94% | 29.92 | 0.0 | |||||||
| 03 | 05:35 | Calm | 4.00 | Fog/Mist | FEW080 | 71.6 | 69.8 | 94% | 29.91 | 0.0 | |||||||
| 03 | 05:15 | SE 2 | 5.00 | Fog/Mist | FEW080 | 71.6 | 71.6 | 100% | 29.91 | 0.0 | |||||||
| 03 | 04:55 | E 2 | 4.00 | Fog/Mist | CLR | 71.6 | 71.6 | 100% | 29.92 | 0.0 | |||||||
| 03 | 04:35 | E 2 | 5.00 | Fog/Mist | FEW080 | 71.6 | 71.6 | 100% | 29.93 | 0.0 | |||||||
| 03 | 04:15 | E 2 | 5.00 | Fog/Mist | SCT080 | 73.4 | 71.6 | 94% | 29.92 | 0.0 | |||||||
| 03 | 03:55 | E 2 | 4.00 | Fog/Mist | SCT090 | 73.4 | 71.6 | 94% | 29.92 | 0.0 | |||||||
| 03 | 03:35 | Calm | 4.00 | Fog/Mist | SCT090 | 73.4 | 71.6 | 94% | 29.92 | 0.0 | |||||||
| 03 | 03:15 | N 2 | 4.00 | Fog/Mist | BKN080 BKN120 | 73.4 | 73.4 | 100% | 29.92 | 0.0 | |||||||
| 03 | 02:55 | E 2 | 4.00 | Fog/Mist | BKN080 BKN120 | 73.4 | 73.4 | 100% | 29.92 | 0.0 | |||||||
| 03 | 02:35 | E 3 | 5.00 | Fog/Mist | FEW050 | 75.2 | 73.4 | 94% | 74 | 29.92 | 0.0 | ||||||
| 03 | 02:15 | E 1 | 5.00 | Fog/Mist | FEW050 | 73.4 | 73.4 | 100% | 29.92 | 0.0 | |||||||
| 03 | 01:55 | Calm | 5.00 | Fog/Mist | SCT055 BKN065 | 73.4 | 73.4 | 100% | 29.92 | 0.0 | |||||||
| 03 | 01:35 | SW 1 | 2.50 | Fog/Mist | BKN055 | 75.2 | 73.4 | 94% | 74 | 29.92 | 0.0 | ||||||
| 03 | 01:15 | NE 1 | 6.00 | Fog/Mist | FEW055 | 75.2 | 73.4 | 94% | 74 | 29.93 | 0.0 | ||||||
| 03 | 00:55 | E 1 | 7.00 | Fog/Mist | CLR | 75.2 | 75.2 | 85.6 | 75.7 | 100% | 73 | 29.93 | 0.0 | ||||
| 03 | 00:35 | Calm | 7.00 | Fog/Mist | CLR | 75.2 | 75.2 | 100% | 73 | 29.93 | 0.0 | ||||||
| 03 | 00:15 | Vrbl 2 | 8.00 | Fair | CLR | 77 | 75.2 | 94% | 78 | 29.93 | 0.0 | ||||||
| 02 | 23:55 | SW 3 | 9.00 | Fair | CLR | 77 | 75.2 | 94% | 78 | 29.93 | 0.0 | ||||||
| 02 | 23:35 | SW 5 | 7.00 | Fog/Mist | CLR | 77 | 73.4 | 89% | 78 | 29.92 | 0.0 | ||||||
| 02 | 23:15 | SW 3 | 8.00 | Fair | CLR | 77 | 75.2 | 94% | 78 | 29.92 | 0.0 | ||||||
| 02 | 22:55 | Vrbl 1 | 9.00 | Fair | CLR | 77 | 75.2 | 94% | 78 | 29.92 | 0.0 | ||||||
| 02 | 22:35 | S 5 | 10.00 | Fair | CLR | 78.8 | 75.2 | 89% | 82 | 29.92 | 0.0 | ||||||
| 02 | 22:15 | S 2 | 10.00 | Fair | CLR | 77 | 73.4 | 89% | 78 | 29.92 | 0.0 | ||||||
| 02 | 21:55 | W 1 | 10.00 | Fair | CLR | 77 | 73.4 | 89% | 78 | 29.92 | 0.0 | ||||||
| 02 | 21:35 | SW 2 | 10.00 | Fair | CLR | 77 | 73.4 | 89% | 78 | 29.92 | 0.0 | ||||||
| 02 | 21:15 | S 1 | 9.00 | Fair | CLR | 77 | 75.2 | 94% | 78 | 29.91 | 0.0 | ||||||
| 02 | 20:55 | Calm | 10.00 | Fair | CLR | 78.8 | 75.2 | 89% | 82 | 29.91 | 0.0 | ||||||
| 02 | 20:45 | Calm | 10.00 | Fair | CLR | 78.8 | 73.4 | 84% | 82 | 29.91 | 0.0 | ||||||
| 02 | 19:45 | W 5 | 10.00 | Fair | CLR | 80.6 | 75.2 | 84% | 86 | 29.89 | 0.0 | ||||||
| 02 | 18:45 | SW 5 | 10.00 | Fair | CLR | 86 | 73.4 | 66% | 93 | 29.9 | 0.0 | ||||||
| 02 | 17:45 | W 6 | 10.00 | Fair | CLR | 87.8 | 73.4 | 62% | 96 | 29.89 | 0.0 | ||||||
| 02 | 16:45 | W 6 | 10.00 | Partly Cloudy | SCT110 | 87.8 | 73.4 | 62% | 96 | 29.9 | 0.0 | ||||||
| 02 | 15:45 | SW 8 | 10.00 | Fair | CLR | 87.8 | 73.4 | 62% | 96 | 29.91 | 0.0 | ||||||
| 02 | 14:45 | SW 9 | 10.00 | Fair | CLR | 87.8 | 73.4 | 62% | 96 | 29.91 | 0.0 | ||||||
| 02 | 13:45 | SW 9 | 10.00 | Fair | CLR | 86 | 73.4 | 66% | 93 | 29.92 | 0.0 | ||||||
| 02 | 12:45 | SW 7 | 10.00 | Fair | CLR | 84.2 | 73.4 | 70% | 91 | 29.94 | 0.0 | ||||||
| 02 | 11:45 | E 3 | 10.00 | Fair | CLR | 82.4 | 69.8 | 66% | 86 | 29.94 | 0.0 | ||||||
| 02 | 10:45 | SE 9 | 10.00 | Fair | CLR | 80.6 | 68 | 66% | 83 | 29.93 | 0.0 | ||||||
| 02 | 09:45 | SE 9 | 10.00 | Fair | CLR | 77 | 66.2 | 69% | 79 | 29.95 | 0.0 | ||||||
| 02 | 08:45 | E 7 | 10.00 | Mostly Cloudy | BKN100 | 75.2 | 68 | 78% | 76 | 29.96 | 0.0 | ||||||
| 02 | 07:45 | N 3 | 10.00 | Partly Cloudy | SCT090 | 75.2 | 69.8 | 83% | 75 | 29.98 | 0.0 | ||||||
| 02 | 06:45 | N 7 | 10.00 | Partly Cloudy | SCT090 | 75.2 | 69.8 | 83% | 75 | 29.97 | 0.0 | ||||||
| 02 | 05:45 | SW 5 | 10.00 | Mostly Cloudy | BKN090 | 75.2 | 71.6 | 89% | 75 | 29.93 | 0.0 | ||||||
| 02 | 05:35 | S 6 | 10.00 | Partly Cloudy | SCT090 | 75.2 | 71.6 | 89% | 75 | 29.94 | 0.0 | ||||||
| 02 | 05:15 | SW 6 | 10.00 | Fair | CLR | 75.2 | 71.6 | 89% | 75 | 29.94 | 0.0 | ||||||
| 02 | 04:55 | SW 7 | 10.00 | A Few Clouds | FEW090 | 73.4 | 73.4 | 100% | 29.94 | 0.0 | |||||||
| 02 | 04:35 | S 2 | 6.00 | Fog/Mist | BKN090 | 73.4 | 71.6 | 94% | 29.95 | 0.0 | |||||||
| 02 | 04:15 | N 8 | 5.00 | Fog/Mist | FEW100 | 71.6 | 71.6 | 100% | 29.96 | 0.0 | |||||||
| 02 | 03:55 | Calm | 6.00 | Fog/Mist | SCT090 | 73.4 | 71.6 | 94% | 29.94 | 0.0 | |||||||
| 02 | 03:35 | N 5 | 8.00 | Mostly Cloudy | BKN090 | 73.4 | 73.4 | 100% | 29.94 | 0.0 | |||||||
| 02 | 03:15 | SW 3 | 8.00 | Fair | CLR | 73.4 | 73.4 | 100% | 29.94 | 0.0 | |||||||
| 02 | 02:55 | S 3 | 8.00 | Fair | CLR | 73.4 | 73.4 | 100% | 29.93 | 0.0 | |||||||
| 02 | 02:35 | SE 1 | 10.00 | Fair | CLR | 75.2 | 73.4 | 94% | 74 | 29.94 | 0.0 | ||||||
| 02 | 02:15 | Calm | 10.00 | Fair | CLR | 75.2 | 73.4 | 94% | 74 | 29.94 | 0.0 | ||||||
| 02 | 01:55 | N 7 | 10.00 | Partly Cloudy | SCT120 | 75.2 | 73.4 | 94% | 74 | 29.94 | 0.0 | ||||||
| 02 | 01:35 | SW 6 | 10.00 | Mostly Cloudy | BKN120 | 78.8 | 75.2 | 89% | 82 | 29.93 | 0.0 | ||||||
| 02 | 01:15 | SW 6 | 10.00 | Thunderstorm in Vicinity | BKN110 | 77 | 75.2 | 94% | 78 | 29.94 | 0.0 | ||||||
| 02 | 00:55 | SW 1 | 10.00 | Overcast | OVC110 | 75.2 | 73.4 | 81.1 | 74.5 | 94% | 74 | 29.95 | 0.0 | ||||
| 02 | 00:35 | Vrbl 1 | 9.00 | Overcast | OVC110 | 75.2 | 75.2 | 100% | 73 | 29.95 | 0.0 | ||||||
| 02 | 00:15 | Vrbl 1 | 10.00 | Partly Cloudy | SCT110 | 75.2 | 73.4 | 94% | 74 | 29.94 | 0.0 | ||||||
| 01 | 23:55 | Calm | 10.00 | Partly Cloudy | SCT110 | 75.2 | 75.2 | 100% | 73 | 29.93 | 0.0 | ||||||
| 01 | 23:35 | N 2 | 10.00 | Partly Cloudy | SCT110 | 77 | 75.2 | 94% | 78 | 29.94 | 0.0 | ||||||
| 01 | 23:15 | NW 2 | 10.00 | Mostly Cloudy | BKN110 | 78.8 | 75.2 | 89% | 82 | 29.94 | 0.0 | ||||||
| 01 | 22:55 | SW 2 | 10.00 | Overcast | OVC110 | 78.8 | 75.2 | 89% | 82 | 29.93 | 0.0 | ||||||
| 01 | 22:35 | SW 5 | 10.00 | Mostly Cloudy | BKN110 | 78.8 | 75.2 | 89% | 82 | 29.93 | 0.0 | ||||||
| 01 | 22:15 | S 6 | 10.00 | Fair | CLR | 78.8 | 75.2 | 89% | 82 | 29.93 | 0.0 | ||||||
| 01 | 21:55 | SW 6 | 10.00 | Fair | CLR | 78.8 | 73.4 | 84% | 82 | 29.94 | 0.0 | ||||||
| 01 | 21:36 | SW 7 | 10.00 | A Few Clouds | FEW120 | 77 | 73.4 | 89% | 78 | 29.94 | 0.0 | ||||||
| 01 | 21:15 | S 5 | 10.00 | Mostly Cloudy | BKN110 | 78.8 | 73.4 | 84% | 82 | 29.94 | 0.0 | ||||||
| 01 | 20:55 | SW 3 | 10.00 | Mostly Cloudy | BKN110 | 77 | 75.2 | 94% | 78 | 29.95 | 0.0 | ||||||
| 01 | 20:45 | SW 3 | 10.00 | Fair | CLR | 77 | 73.4 | 89% | 78 | 29.94 | 0.0 | ||||||
| 01 | 19:45 | S 5 | 10.00 | Fair | CLR | 78.8 | 73.4 | 84% | 82 | 29.93 | 0.0 | ||||||
| 01 | 18:45 | W 5 | 10.00 | Fair | CLR | 82.4 | 73.4 | 74% | 88 | 29.93 | 0.0 | ||||||
| Date | Time (cdt) | Wind (mph) | Vis. (mi.) | Weather | Sky Cond. | Air | Dwpt | Max. | Min. | Relative Humidity | Wind Chill (°F) | Heat Index (°F) | altimeter (in) | sea level (mb) | 1 hr | 3 hr | 6 hr |
| 6 hour | |||||||||||||||||
| Temperature (ºF) | Pressure | Precipitation (in) | |||||||||||||||